EHI
0 0 0 0 0 0 0 0 0 0 0 0 0 0 0 0 0 0 0 0 0 1 3 7 10 10 9 7 6 6 6 6 6 6 4 2 1 0 0 1 1 1 1 1 0 0 0 0 0
0 0 0 0 0 0 0 0 0 0 0 0 0 0 0 0 0 0 0 0 0 1 3 6 9 10 8 6 5 6 6 6 6 6 6 4 2 1 1 2 2 2 2 2 1 0 0 0 0
0 0 0 0 0 0 0 0 0 0 0 0 0 0 0 0 0 0 0 0 0 0 2 6 9 9 8 6 5 5 6 6 7 7 7 6 5 4 3 3 4 4 3 2 1 0 0 0 0
0 0 0 0 0 0 0 0 0 0 0 0 0 0 0 0 0 0 0 0 0 0 2 6 8 8 7 6 5 4 5 6 7 7 7 8 7 6 5 4 4 4 2 1 0 0 0 0 0
0 0 0 0 0 0 0 0 0 0 0 0 0 0 0 0 0 0 0 0 1 1 3 6 7 8 9 7 6 4 5 6 7 7 8 9 9 8 7 6 5 4 1 0 0 0 0 0 0
0 0 0 0 0 0 0 0 0 0 0 0 0 0 0 0 0 0 0 0 0 1 3 5 6 8 9 8 7 5 5 7 7 8 9 10 11 10 9 7 6 4 2 1 0 0 0 0 0
0 0 0 0 0 0 0 0 0 0 0 0 0 0 0 0 0 0 1 1 0 0 2 4 5 5 6 6 6 5 6 6 7 8 10 11 12 11 8 6 6 5 4 2 1 1 0 0 0
0 0 0 0 0 0 0 0 0 0 0 0 0 0 0 0 0 1 2 2 1 1 1 3 4 4 5 4 5 4 5 5 5 6 7 8 9 9 6 4 5 6 5 4 2 1 0 0 0
0 0 0 0 0 0 0 0 0 0 0 0 0 0 0 0 1 2 3 3 2 1 1 1 3 5 5 4 4 4 3 3 3 3 3 5 6 5 2 1 3 5 5 3 1 0 0 0 0
0 0 0 0 0 0 0 0 0 0 0 0 0 0 0 0 1 2 3 2 2 1 0 0 1 4 4 3 3 3 2 1 2 2 3 5 5 3 1 0 1 2 2 1 0 0 0 0 0
0 0 0 0 0 0 0 0 0 0 0 0 0 0 0 0 0 1 1 1 0 0 0 0 0 1 2 2 3 2 1 1 2 3 5 6 5 4 2 1 1 1 1 1 0 0 0 0 0
0 0 0 0 0 0 0 0 0 0 0 0 0 0 0 0 0 0 0 0 0 0 0 0 0 0 1 1 3 3 2 1 2 3 5 4 4 3 3 3 2 2 2 2 1 0 0 0 0
0 0 0 0 0 0 0 0 0 0 0 0 0 0 0 0 0 0 0 0 0 0 0 0 0 0 0 1 2 2 2 1 2 3 4 3 3 3 3 3 3 3 3 2 1 0 0 0 0
0 0 0 0 0 0 0 0 0 0 0 0 0 0 0 0 0 0 0 0 0 0 0 0 0 0 0 0 1 1 1 1 1 2 3 3 3 3 3 3 2 2 1 1 1 0 0 0 0
0 0 0 0 0 0 0 0 0 0 0 0 0 0 0 0 0 0 0 0 0 0 0 0 0 0 0 0 0 0 0 0 0 1 2 3 3 3 3 2 1 0 0 0 0 0 0 0 0
0 0 0 0 0 0 0 0 0 0 0 0 0 0 0 0 0 0 0 0 0 0 0 0 0 0 0 0 0 0 0 0 0 0 1 2 3 3 3 2 1 0 0 0 0 0 0 0 0
0 0 0 0 0 0 0 0 0 0 0 0 0 0 0 0 0 0 0 0 0 0 0 0 0 0 0 0 0 0 0 0 0 0 0 1 3 3 3 2 0 0 0 0 0 0 0 0 0
0 0 0 0 0 0 0 0 0 0 0 0 0 0 0 0 0 0 0 0 0 0 0 0 0 0 0 0 0 0 0 0 0 0 0 1 2 3 3 2 1 0 0 0 0 0 0 0 0
0 0 0 0 0 0 0 0 0 0 0 0 0 0 0 0 0 0 0 0 0 0 0 0 0 0 0 0 0 0 0 0 0 0 0 0 1 1 3 2 1 0 0 0 0 0 0 0 0
0 0 0 0 0 0 0 0 0 0 0 0 0 0 0 0 0 0 0 0 0 0 0 0 0 0 0 0 0 0 0 0 0 0 0 0 0 1 2 2 1 0 0 0 0 0 0 0 0
0 0 0 0 0 0 0 0 0 0 0 0 0 0 0 0 0 0 0 0 0 0 0 0 0 0 0 0 0 0 0 0 0 0 0 0 0 0 1 1 0 0 0 0 0 0 0 0 0
0 0 0 0 0 0 0 0 0 0 0 0 0 0 0 0 0 0 0 0 0 0 0 0 0 0 0 0 0 0 0 0 0 0 0 0 0 0 0 0 0 0 0 0 0 0 0 0 0
0 0 0 0 0 0 0 0 0 0 0 0 0 0 0 0 0 0 0 0 0 0 0 0 0 0 0 0 0 0 0 0 0 0 0 0 0 0 0 0 0 0 0 0 0 0 0 0 0
0 0 0 0 0 0 0 0 0 0 0 0 0 0 0 0 0 0 0 0 0 0 0 0 0 0 0 0 0 0 0 0 0 0 0 0 0 0 0 0 0 0 0 0 0 0 0 0 0
0 0 0 0 0 0 0 0 0 0 0 0 0 0 0 0 0 0 0 0 0 0 0 0 0 0 0 0 0 0 0 0 0 0 0 0 0 0 0 0 0 0 0 0 0 0 0 0 0
0 0 0 0 0 0 0 0 0 0 0 0 0 0 0 0 0 0 0 0 0 0 0 0 0 0 0 0 0 0 0 0 0 0 0 0 0 0 0 0 0 0 0 0 0 0 0 0 0
0 0 0 0 0 0 0 0 0 0 0 0 0 0 0 0 0 0 0 0 0 0 0 0 0 0 0 0 0 0 0 0 0 0 0 0 0 0 0 0 0 0 0 0 0 0 0 0 0
0 0 0 0 0 0 0 0 0 0 0 0 0 0 0 0 0 0 0 0 0 0 0 0 0 0 0 0 0 0 0 0 0 0 0 0 0 0 0 0 0 0 0 0 0 0 0 0 0
0 0 0 0 0 0 0 0 0 0 0 0 0 0 0 0 0 0 0 0 0 0 0 0 0 0 0 0 0 0 0 0 0 0 0 0 0 0 0 0 0 0 0 0 0 0 0 0 0
0 0 0 0 0 0 0 0 0 0 0 0 0 0 0 0 0 0 0 0 0 0 0 0 0 0 0 0 0 0 0 0 0 0 0 0 0 0 0 0 0 0 0 0 0 0 0 0 0
Wind_Speed
3 1 2 3 5 6 10 7 4 4 3 2 2 3 3 2 1 2 4 3 2 5 6 6 6 7 9 9 9 10 10 10 10 10 11 10 11 11 11 11 11 11 12 12 13 13 13 14 14
2 1 3 4 7 10 8 8 8 6 3 4 3 3 3 2 2 3 2 2 3 5 5 6 6 8 9 10 10 10 10 10 10 10 10 10 11 11 11 11 11 12 12 12 12 13 13 13 13
1 1 3 4 8 11 8 6 6 4 3 4 4 2 2 0 2 2 2 3 4 5 5 6 6 8 9 9 9 10 10 10 10 10 10 10 11 11 11 11 11 11 12 12 12 12 12 12 13
2 3 3 7 12 11 9 4 4 6 4 3 3 3 2 2 2 2 2 3 5 5 5 6 6 8 9 9 9 10 10 10 10 10 10 10 11 11 11 11 11 11 11 12 12 12 12 12 12
2 4 7 10 14 9 6 4 4 5 4 4 5 3 2 3 3 2 3 4 5 5 5 6 7 8 9 9 9 9 9 10 10 10 10 10 11 11 11 10 11 11 11 12 12 11 12 12 12
4 4 9 13 13 9 6 5 6 6 4 4 4 4 2 4 3 2 3 4 4 4 4 5 6 7 9 9 9 8 9 9 9 9 10 10 10 10 10 10 10 11 11 11 11 11 11 12 12
5 5 10 13 11 11 7 4 6 7 7 5 3 4 3 3 2 2 4 4 4 4 4 4 5 6 8 8 8 8 8 9 9 9 9 9 9 10 10 10 10 10 11 11 11 11 11 11 11
3 4 9 11 12 10 5 4 3 5 5 1 3 5 3 2 3 4 4 4 4 4 4 4 4 5 6 7 8 8 8 8 9 9 9 9 9 9 9 9 9 10 10 10 11 11 11 11 11
4 7 11 11 9 7 5 5 3 1 2 2 2 1 3 5 5 6 5 4 3 3 3 3 4 4 5 5 7 7 7 8 8 8 8 7 6 6 6 8 8 9 10 10 11 11 11 10 10
5 9 12 7 6 5 5 5 5 5 5 4 3 1 3 6 7 7 7 7 6 4 3 3 3 3 4 4 4 4 4 4 5 5 6 4 4 4 5 8 8 9 9 10 10 10 9 6 5
5 9 7 5 4 4 4 4 4 6 6 5 5 4 4 6 7 7 7 7 6 5 3 2 3 3 4 3 3 3 2 3 4 5 5 4 4 4 4 3 4 5 6 5 7 6 4 4 4
6 7 6 5 3 4 5 4 4 6 5 2 2 4 6 7 7 7 7 6 5 5 4 3 3 3 3 3 3 3 3 2 3 3 4 4 3 3 3 2 3 3 3 4 3 3 5 5 5
10 8 5 4 3 3 3 5 5 6 4 0 2 4 5 6 6 6 5 5 5 5 4 3 3 4 4 4 3 3 3 2 3 3 3 4 3 3 3 2 2 3 3 3 3 4 5 5 5
5 6 6 5 5 5 5 6 6 7 4 3 3 3 4 5 5 5 5 5 5 5 5 4 4 4 4 4 3 3 3 2 2 3 4 4 3 3 3 3 3 3 3 3 3 4 4 4 4
4 6 7 7 7 5 5 8 10 7 5 5 4 4 4 4 4 5 5 6 6 6 5 5 4 4 5 5 4 3 3 2 2 2 3 4 4 4 3 3 3 3 3 3 4 5 4 4 4
5 7 9 6 6 6 8 13 7 4 6 7 6 5 4 4 4 4 4 4 5 5 6 5 4 5 5 4 4 3 3 3 2 2 3 4 4 4 4 3 3 3 3 3 3 4 4 4 3
6 9 11 7 5 5 9 12 5 4 6 6 6 5 4 4 4 4 4 4 4 5 5 6 5 5 5 5 4 4 3 3 2 2 2 3 4 4 4 3 3 3 3 3 3 4 4 4 4
8 9 10 10 3 6 10 12 7 4 6 7 6 5 5 4 4 4 4 3 4 4 5 5 5 5 5 4 4 3 3 2 2 2 3 4 3 4 4 3 4 3 3 3 3 4 4 4 4
9 9 11 9 4 7 11 12 11 7 6 7 7 6 6 5 4 3 2 3 4 4 5 5 6 6 5 4 4 4 3 2 2 3 4 4 3 3 3 3 4 3 3 4 4 4 5 4 3
9 10 11 8 4 7 9 12 10 8 8 8 8 7 6 5 3 3 3 3 4 5 5 6 6 6 6 4 4 3 4 3 2 3 3 3 3 3 3 4 3 3 3 4 4 4 3 2 1
10 11 10 8 6 6 8 12 11 8 7 6 6 6 6 5 5 4 4 4 4 4 5 5 6 6 6 5 4 4 3 3 2 3 3 3 3 4 3 4 4 3 3 3 4 4 4 3 2
9 7 9 8 8 6 6 10 9 8 7 6 6 5 5 5 4 4 4 3 4 4 4 5 6 6 6 6 6 7 5 5 3 3 3 4 3 4 3 3 4 4 3 3 4 3 3 4 3
6 6 7 8 8 8 8 9 8 4 7 7 6 5 5 4 4 4 4 4 3 3 4 4 6 6 6 6 6 6 5 4 3 4 5 4 4 4 4 4 3 3 3 3 4 3 3 3 3
4 4 5 6 6 10 10 10 8 4 6 6 5 4 4 3 4 4 3 3 3 3 4 4 6 6 6 6 6 6 6 6 5 5 4 4 3 3 4 4 4 4 3 3 3 3 4 3 3
3 3 3 5 7 8 4 8 6 2 3 3 3 3 3 2 3 3 2 3 3 3 4 5 6 6 6 6 6 5 6 6 6 5 4 4 3 3 4 4 4 4 3 3 3 3 3 3 3
4 5 5 6 6 5 5 9 3 1 2 2 2 2 2 2 2 2 2 3 4 4 5 5 6 6 6 6 6 5 5 4 4 5 4 4 3 4 4 4 4 4 4 4 3 3 3 3 3
2 3 3 4 4 7 6 5 4 1 2 2 2 2 2 2 2 2 2 2 3 4 4 5 6 6 6 6 6 5 5 5 4 4 4 4 3 3 4 4 4 4 4 4 4 3 3 3 3
3 1 2 3 5 7 6 7 4 3 2 1 1 2 2 2 2 2 2 2 2 2 3 3 4 5 5 5 5 4 4 4 4 4 4 4 4 4 4 4 4 5 5 5 4 4 4 3 3
1 2 3 3 4 6 6 3 0 3 2 2 3 2 2 3 3 3 3 2 1 1 1 2 4 4 4 4 4 4 4 4 4 3 4 4 4 4 5 5 5 5 5 5 5 4 4 5 4
3 3 3 4 5 5 6 3 3 1 2 2 3 3 3 3 3 3 2 2 2 1 1 1 2 3 3 3 4 4 3 3 4 4 4 4 4 4 4 5 5 5 5 5 6 6 5 5 5
Wind_Direction
328 305 231 219 212 224 232 219 213 187 189 181 164 191 201 206 235 68 73 109 114 147 153 156 137 128 127 124 121 116 114 113 111 110 109 108 107 106 104 103 100 97 96 94 93 91 88 85 83
309 239 208 218 228 225 226 219 213 213 155 142 166 200 197 196 26 65 112 132 148 146 152 154 136 131 128 128 125 120 116 114 112 110 110 110 109 107 103 103 102 99 96 95 94 92 89 87 85
211 245 217 211 228 232 223 208 213 190 173 185 170 204 239 146 115 108 75 144 150 144 154 147 134 132 130 129 128 124 121 118 114 112 111 112 111 109 106 104 102 99 96 94 94 92 91 89 88
208 187 213 228 228 233 241 216 185 170 179 210 195 174 154 45 48 54 107 147 145 145 153 146 138 133 131 127 129 127 124 122 118 115 114 113 112 110 108 104 101 99 98 98 98 96 94 91 89
214 214 214 227 234 230 235 234 193 191 179 176 195 200 163 98 60 81 130 145 145 143 150 148 137 133 130 126 125 126 126 125 122 120 118 115 113 112 109 105 103 102 101 101 101 99 98 94 92
191 214 225 229 230 227 226 227 213 214 201 176 195 209 150 103 94 105 131 139 135 134 135 140 131 129 127 125 121 124 123 122 121 120 118 115 112 112 109 106 104 103 103 103 102 100 98 96 94
216 215 235 239 238 231 222 212 222 220 217 208 215 209 157 134 94 121 136 131 125 124 125 130 143 140 129 123 119 115 117 117 114 111 110 108 105 105 108 106 105 105 104 104 103 99 95 94 93
243 226 233 234 237 237 218 201 222 237 234 212 226 222 190 122 128 136 136 129 122 119 124 125 130 142 146 138 122 113 111 112 110 104 99 98 101 100 100 107 103 104 104 104 104 102 97 92 90
225 229 234 229 231 231 191 204 203 231 189 187 216 315 45 115 139 140 140 138 137 128 129 133 131 130 131 135 125 117 107 106 111 107 99 106 116 115 107 95 95 101 102 101 101 100 97 95 90
213 231 237 244 241 227 195 212 198 192 203 201 195 162 108 138 155 160 167 171 168 159 145 136 130 123 124 118 126 126 119 121 124 127 125 119 112 100 101 89 85 91 97 98 94 96 102 101 102
215 236 244 243 235 226 216 221 212 212 224 224 217 192 156 162 171 179 185 187 177 165 149 136 137 133 127 121 115 116 114 113 117 119 122 124 116 110 103 106 106 108 111 110 107 113 107 102 98
221 241 250 248 225 221 228 223 216 232 246 309 249 171 159 173 185 195 196 190 176 165 160 146 140 136 132 123 118 114 116 112 114 115 117 125 122 117 111 107 110 114 118 118 116 113 108 104 102
227 237 240 243 217 216 219 229 238 245 252 274 119 145 167 182 196 204 199 186 178 173 167 155 144 143 136 127 117 110 111 114 118 121 117 118 123 125 120 112 106 107 115 124 121 115 111 106 100
229 230 240 244 238 236 230 247 245 246 237 211 173 177 191 194 203 198 195 193 191 184 178 164 156 150 139 132 127 117 111 115 115 118 119 118 118 121 123 115 111 112 117 123 125 119 113 104 98
223 236 244 243 237 228 230 250 241 241 222 216 212 210 211 216 211 208 207 204 198 190 180 172 165 152 146 142 136 124 117 117 111 115 123 121 120 122 121 119 117 110 116 123 124 118 113 105 101
218 227 239 229 223 221 224 250 239 217 215 225 226 224 222 227 227 226 221 212 201 189 178 172 165 156 151 142 137 129 127 123 115 119 123 124 125 125 124 121 115 115 121 123 126 127 124 117 108
216 236 245 242 212 218 223 249 242 207 212 228 232 233 232 236 236 235 229 216 203 192 181 172 167 162 155 147 139 132 128 120 117 123 124 125 125 129 126 121 117 129 125 120 117 119 122 118 104
237 242 247 247 226 230 236 245 241 221 227 238 240 238 235 238 238 230 224 213 201 190 184 174 168 167 160 153 140 127 122 124 128 132 127 127 130 136 128 123 124 132 127 121 120 116 110 111 107
260 255 256 259 257 246 245 251 252 241 237 243 242 237 237 237 242 230 211 196 190 184 183 177 170 169 166 165 161 150 154 147 148 139 134 134 129 134 131 127 130 132 131 129 129 124 115 105 113
250 253 261 263 255 253 258 260 256 243 240 244 246 244 243 242 234 222 205 186 187 188 186 181 176 172 175 176 171 163 160 155 152 137 129 132 135 135 135 134 133 136 133 131 131 128 128 113 117
252 254 260 264 270 245 267 259 243 238 240 250 251 250 248 243 233 220 207 193 185 187 188 184 178 176 176 170 159 143 141 144 151 153 145 148 142 138 137 143 140 141 141 140 143 146 143 147 133
261 269 267 259 252 248 244 266 244 240 237 245 254 253 253 247 241 230 220 210 198 196 187 184 176 176 175 173 166 161 166 165 170 169 153 145 148 143 138 141 145 145 144 148 153 152 151 155 151
271 281 265 255 251 254 239 251 257 233 247 253 256 258 256 254 241 232 226 220 212 200 190 183 176 174 174 173 170 173 173 166 157 159 151 150 153 153 147 144 148 149 148 155 154 152 150 159 160
274 271 258 244 241 245 235 236 256 227 249 257 258 266 273 264 250 236 228 219 207 192 186 182 178 175 174 171 172 177 175 168 159 160 160 159 157 159 157 157 156 155 151 158 163 162 159 156 155
282 260 250 231 225 240 217 236 251 290 279 266 268 283 294 277 258 246 225 214 209 195 188 186 180 177 175 173 176 182 182 177 171 169 171 169 167 167 176 171 170 166 162 163 162 163 168 165 161
263 254 246 256 253 256 222 234 236 25 337 327 314 315 332 318 293 268 241 216 208 203 198 192 186 181 179 179 180 181 183 186 181 176 172 178 181 179 177 178 175 173 166 166 166 164 170 173 175
260 250 284 271 276 266 243 243 241 219 339 346 332 332 332 335 323 289 264 229 216 209 205 200 188 186 186 187 183 184 181 184 182 178 181 184 183 178 174 176 179 179 177 175 174 177 179 180 181
293 260 241 240 250 252 248 243 249 253 281 300 315 316 322 344 342 326 302 284 241 228 219 204 191 188 188 189 188 187 185 183 182 178 184 183 182 177 173 178 183 182 182 182 183 185 185 186 187
243 221 245 250 271 269 261 241 340 257 256 264 277 293 312 329 333 331 330 312 283 241 212 204 193 188 186 185 187 189 188 186 189 186 191 191 188 186 182 185 186 189 189 190 192 198 190 194 195
250 243 228 250 252 258 273 270 70 325 308 286 288 298 310 323 331 336 336 334 336 297 241 223 207 195 193 189 185 190 190 193 197 197 199 197 193 190 189 190 192 195 195 196 199 202 202 204 204